Location: Antist
(43.1184°N, 0.1270°E)
Time: 17:50:58
(UTC+00:00)

Cosmos 1295 Rocket - Pass Details

Date: 19 January 2020
Orbit: 943 x 995 km, 82.9° (Epoch: 18 February)

Event Time Altitude Azimuth Distance (km) Brightness Sun altitude
Rises 18:00:23 0° 178° (S) 3,695 7.7 -12.0°
Reaches altitude 10° 18:02:54 10° 176° (S) 2,751 7.0 -12.5°
Maximum altitude 18:09:11 71° 94° (E) 1,051 4.5 -13.6°
Drops below altitude 10° 18:15:29 10° 12° (NNE) 2,760 6.6 -14.7°
Sets 18:18:01 0° 11° (N) 3,707 7.3 -15.1°
